Year,Month,Day,Hour,Minute,Value (Times are PST for temperature in C)
2015,06,07,00,00,17.40
2015,06,07,00,01,17.40
2015,06,07,00,02,17.40
2015,06,07,00,03,17.50
2015,06,07,00,04,17.50
2015,06,07,00,05,17.50
2015,06,07,00,06,17.50
2015,06,07,00,07,17.50
2015,06,07,00,08,17.50
2015,06,07,00,09,17.50
2015,06,07,00,10,17.50
2015,06,07,00,11,17.60
2015,06,07,00,12,17.60
2015,06,07,00,13,17.60
2015,06,07,00,14,17.60
2015,06,07,00,15,17.60
2015,06,07,00,16,17.60
2015,06,07,00,17,17.60
2015,06,07,00,18,17.60
2015,06,07,00,19,17.60
2015,06,07,00,20,17.60
2015,06,07,00,21,17.60
2015,06,07,00,22,17.60
2015,06,07,00,23,17.60
2015,06,07,00,24,17.60
2015,06,07,00,25,17.60
2015,06,07,00,26,17.60
2015,06,07,00,27,17.60
2015,06,07,00,28,17.50
2015,06,07,00,29,17.50
2015,06,07,00,30,17.40
2015,06,07,00,31,17.40
2015,06,07,00,32,17.30
2015,06,07,00,33,17.30
2015,06,07,00,34,17.20
2015,06,07,00,35,17.20
2015,06,07,00,36,17.20
2015,06,07,00,37,17.10
2015,06,07,00,38,17.10
2015,06,07,00,39,17.10
2015,06,07,00,40,17.00
2015,06,07,00,41,17.00
2015,06,07,00,42,17.00
2015,06,07,00,43,17.00
2015,06,07,00,44,17.00
2015,06,07,00,45,17.00
2015,06,07,00,46,17.00
2015,06,07,00,47,16.90
2015,06,07,00,48,16.90
2015,06,07,00,49,16.80
2015,06,07,00,50,16.80
2015,06,07,00,51,16.70
2015,06,07,00,52,16.60
2015,06,07,00,53,16.60
2015,06,07,00,54,16.50
2015,06,07,00,55,16.40
2015,06,07,00,56,16.30
2015,06,07,00,57,16.20
2015,06,07,00,58,16.20
2015,06,07,00,59,16.10
2015,06,07,01,00,16.00
2015,06,07,01,01,15.90
2015,06,07,01,02,15.80
2015,06,07,01,03,15.80
2015,06,07,01,04,15.70
2015,06,07,01,05,15.70
2015,06,07,01,06,15.70
2015,06,07,01,07,15.60
2015,06,07,01,08,15.50
2015,06,07,01,09,15.50
2015,06,07,01,10,15.40
2015,06,07,01,11,15.30
2015,06,07,01,12,15.30
2015,06,07,01,13,15.20
2015,06,07,01,14,15.20
2015,06,07,01,15,15.10
2015,06,07,01,16,15.10
2015,06,07,01,17,15.10
2015,06,07,01,18,15.10
2015,06,07,01,19,15.20
2015,06,07,01,20,15.20
2015,06,07,01,21,15.30
2015,06,07,01,22,15.30
2015,06,07,01,23,15.30
2015,06,07,01,24,15.30
2015,06,07,01,25,15.30
2015,06,07,01,26,15.30
2015,06,07,01,27,15.20
2015,06,07,01,28,15.20
2015,06,07,01,29,15.20
2015,06,07,01,30,15.20
2015,06,07,01,31,15.10
2015,06,07,01,32,15.00
2015,06,07,01,33,15.00
2015,06,07,01,34,14.90
2015,06,07,01,35,14.90
2015,06,07,01,36,14.90
2015,06,07,01,37,14.90
2015,06,07,01,38,15.00
2015,06,07,01,39,15.00
2015,06,07,01,40,15.10
2015,06,07,01,41,15.10
2015,06,07,01,42,15.20
2015,06,07,01,43,15.20
2015,06,07,01,44,15.20
2015,06,07,01,45,15.20
2015,06,07,01,46,15.20
2015,06,07,01,47,15.10
2015,06,07,01,48,15.00
2015,06,07,01,49,15.00
2015,06,07,01,50,15.00
2015,06,07,01,51,15.00
2015,06,07,01,52,15.10
2015,06,07,01,53,15.10
2015,06,07,01,54,15.10
2015,06,07,01,55,15.20
2015,06,07,01,56,15.20
2015,06,07,01,57,15.30
2015,06,07,01,58,15.30
2015,06,07,01,59,15.30
2015,06,07,02,00,15.30
2015,06,07,02,01,15.20
2015,06,07,02,02,15.20
2015,06,07,02,03,15.20
2015,06,07,02,04,15.20
2015,06,07,02,05,15.20
2015,06,07,02,06,15.20
2015,06,07,02,07,15.10
2015,06,07,02,08,15.10
2015,06,07,02,09,15.10
2015,06,07,02,10,15.10
2015,06,07,02,11,15.10
2015,06,07,02,12,15.20
2015,06,07,02,13,15.20
2015,06,07,02,14,15.20
2015,06,07,02,15,15.30
2015,06,07,02,16,15.30
2015,06,07,02,17,15.30
2015,06,07,02,18,15.30
2015,06,07,02,19,15.30
2015,06,07,02,20,15.30
2015,06,07,02,21,15.30
2015,06,07,02,22,15.40
2015,06,07,02,23,15.40
2015,06,07,02,24,15.40
2015,06,07,02,25,15.40
2015,06,07,02,26,15.40
2015,06,07,02,27,15.40
2015,06,07,02,28,15.40
2015,06,07,02,29,15.40
2015,06,07,02,30,15.40
2015,06,07,02,31,15.40
2015,06,07,02,32,15.40
2015,06,07,02,33,15.50
2015,06,07,02,34,15.50
2015,06,07,02,35,15.50
2015,06,07,02,36,15.50
2015,06,07,02,37,15.50
2015,06,07,02,38,15.50
2015,06,07,02,39,15.40
2015,06,07,02,40,15.40
2015,06,07,02,41,15.40
2015,06,07,02,42,15.30
2015,06,07,02,43,15.30
2015,06,07,02,44,15.30
2015,06,07,02,45,15.30
2015,06,07,02,46,15.20
2015,06,07,02,47,15.20
2015,06,07,02,48,15.20
2015,06,07,02,49,15.20
2015,06,07,02,50,15.20
2015,06,07,02,51,15.20
2015,06,07,02,52,15.20
2015,06,07,02,53,15.20
2015,06,07,02,54,15.20
2015,06,07,02,55,15.20
2015,06,07,02,56,15.20
2015,06,07,02,57,15.20
2015,06,07,02,58,15.20
2015,06,07,02,59,15.20
2015,06,07,03,00,15.20
2015,06,07,03,01,15.20
2015,06,07,03,02,15.20
2015,06,07,03,03,15.20
2015,06,07,03,04,15.20
2015,06,07,03,05,15.20
2015,06,07,03,06,15.20
2015,06,07,03,07,15.20
2015,06,07,03,08,15.20
2015,06,07,03,09,15.20
2015,06,07,03,10,15.20
2015,06,07,03,11,15.20
2015,06,07,03,12,15.20
2015,06,07,03,13,15.20
2015,06,07,03,14,15.20
2015,06,07,03,15,15.20
2015,06,07,03,16,15.20
2015,06,07,03,17,15.10
2015,06,07,03,18,15.10
2015,06,07,03,19,15.10
2015,06,07,03,20,15.10
2015,06,07,03,21,15.10
2015,06,07,03,22,15.10
2015,06,07,03,23,15.10
2015,06,07,03,24,15.10
2015,06,07,03,25,15.10
2015,06,07,03,26,15.10
2015,06,07,03,27,15.10
2015,06,07,03,28,15.10
2015,06,07,03,29,15.10
2015,06,07,03,30,15.00
2015,06,07,03,31,15.00
2015,06,07,03,32,15.00
2015,06,07,03,33,14.90
2015,06,07,03,34,14.90
2015,06,07,03,35,14.90
2015,06,07,03,36,14.90
2015,06,07,03,37,14.80
2015,06,07,03,38,14.80
2015,06,07,03,39,14.80
2015,06,07,03,40,14.80
2015,06,07,03,41,14.80
2015,06,07,03,42,14.80
2015,06,07,03,43,14.80
2015,06,07,03,44,14.80
2015,06,07,03,45,14.80
2015,06,07,03,46,14.80
2015,06,07,03,47,14.80
2015,06,07,03,48,14.80
2015,06,07,03,49,14.80
2015,06,07,03,50,14.80
2015,06,07,03,51,14.80
2015,06,07,03,52,14.80
2015,06,07,03,53,14.80
2015,06,07,03,54,14.80
2015,06,07,03,55,14.80
2015,06,07,03,56,14.80
2015,06,07,03,57,14.80
2015,06,07,03,58,14.80
2015,06,07,03,59,14.80
2015,06,07,04,00,14.70
2015,06,07,04,01,14.70
2015,06,07,04,02,14.70
2015,06,07,04,03,14.70
2015,06,07,04,04,14.60
2015,06,07,04,05,14.60
2015,06,07,04,06,14.60
2015,06,07,04,07,14.60
2015,06,07,04,08,14.60
2015,06,07,04,09,14.50
2015,06,07,04,10,14.50
2015,06,07,04,11,14.50
2015,06,07,04,12,14.50
2015,06,07,04,13,14.40
2015,06,07,04,14,14.40
2015,06,07,04,15,14.40
2015,06,07,04,16,14.40
2015,06,07,04,17,14.40
2015,06,07,04,18,14.30
2015,06,07,04,19,14.30
2015,06,07,04,20,14.30
2015,06,07,04,21,14.30
2015,06,07,04,22,14.30
2015,06,07,04,23,14.30
2015,06,07,04,24,14.30
2015,06,07,04,25,14.30
2015,06,07,04,26,14.30
2015,06,07,04,27,14.30
2015,06,07,04,28,14.30
2015,06,07,04,29,14.30
2015,06,07,04,30,14.30
2015,06,07,04,31,14.30
2015,06,07,04,32,14.30
2015,06,07,04,33,14.30
2015,06,07,04,34,14.30
2015,06,07,04,35,14.30
2015,06,07,04,36,14.30
2015,06,07,04,37,14.30
2015,06,07,04,38,14.30
2015,06,07,04,39,14.30
2015,06,07,04,40,14.30
2015,06,07,04,41,14.20
2015,06,07,04,42,14.20
2015,06,07,04,43,14.20
2015,06,07,04,44,14.20
2015,06,07,04,45,14.20
2015,06,07,04,46,14.20
2015,06,07,04,47,14.20
2015,06,07,04,48,14.20
2015,06,07,04,49,14.20
2015,06,07,04,50,14.20
2015,06,07,04,51,14.10
2015,06,07,04,52,14.10
2015,06,07,04,53,14.10
2015,06,07,04,54,14.10
2015,06,07,04,55,14.00
2015,06,07,04,56,14.00
2015,06,07,04,57,14.00
2015,06,07,04,58,14.00
2015,06,07,04,59,14.00
2015,06,07,05,00,14.00
2015,06,07,05,01,14.00
2015,06,07,05,02,14.00
2015,06,07,05,03,13.90
2015,06,07,05,04,13.90
2015,06,07,05,05,13.90
2015,06,07,05,06,13.90
2015,06,07,05,07,13.90
2015,06,07,05,08,13.90
2015,06,07,05,09,13.90
2015,06,07,05,10,13.90
2015,06,07,05,11,13.90
2015,06,07,05,12,13.90
2015,06,07,05,13,13.90
2015,06,07,05,14,13.90
2015,06,07,05,15,14.00
2015,06,07,05,16,14.00
2015,06,07,05,17,14.00
2015,06,07,05,18,14.00
2015,06,07,05,19,14.00
2015,06,07,05,20,13.90
2015,06,07,05,21,13.90
2015,06,07,05,22,13.90
2015,06,07,05,23,13.90
2015,06,07,05,24,13.90
2015,06,07,05,25,13.90
2015,06,07,05,26,13.90
2015,06,07,05,27,13.90
2015,06,07,05,28,13.90
2015,06,07,05,29,13.90
2015,06,07,05,30,13.90
2015,06,07,05,31,13.90
2015,06,07,05,32,13.90
2015,06,07,05,33,13.90
2015,06,07,05,34,13.90
2015,06,07,05,35,13.90
2015,06,07,05,36,13.90
2015,06,07,05,37,14.00
2015,06,07,05,38,14.00
2015,06,07,05,39,14.00
2015,06,07,05,40,14.00
2015,06,07,05,41,14.00
2015,06,07,05,42,14.10
2015,06,07,05,43,14.10
2015,06,07,05,44,14.10
2015,06,07,05,45,14.10
2015,06,07,05,46,14.20
2015,06,07,05,47,14.20
2015,06,07,05,48,14.20
2015,06,07,05,49,14.20
2015,06,07,05,50,14.20
2015,06,07,05,51,14.20
2015,06,07,05,52,14.20
2015,06,07,05,53,14.30
2015,06,07,05,54,14.30
2015,06,07,05,55,14.30
2015,06,07,05,56,14.30
2015,06,07,05,57,14.30
2015,06,07,05,58,14.40
2015,06,07,05,59,14.40
2015,06,07,06,00,14.40
2015,06,07,06,01,14.40
2015,06,07,06,02,14.40
2015,06,07,06,03,14.50
2015,06,07,06,04,14.50
2015,06,07,06,05,14.50
2015,06,07,06,06,14.50
2015,06,07,06,07,14.60
2015,06,07,06,08,14.50
2015,06,07,06,09,14.60
2015,06,07,06,10,14.60
2015,06,07,06,11,14.60
2015,06,07,06,12,14.60
2015,06,07,06,13,14.60
2015,06,07,06,14,14.60
2015,06,07,06,15,14.60
2015,06,07,06,16,14.60
2015,06,07,06,17,14.70
2015,06,07,06,18,14.70
2015,06,07,06,19,14.70
2015,06,07,06,20,14.70
2015,06,07,06,21,14.70
2015,06,07,06,22,14.70
2015,06,07,06,23,14.70
2015,06,07,06,24,14.80
2015,06,07,06,25,14.80
2015,06,07,06,26,14.80
2015,06,07,06,27,14.80
2015,06,07,06,28,14.80
2015,06,07,06,29,14.80
2015,06,07,06,30,14.90
2015,06,07,06,31,14.90
2015,06,07,06,32,14.90
2015,06,07,06,33,15.00
2015,06,07,06,34,15.00
2015,06,07,06,35,15.10
2015,06,07,06,36,15.10
2015,06,07,06,37,15.20
2015,06,07,06,38,15.20
2015,06,07,06,39,15.30
2015,06,07,06,40,15.30
2015,06,07,06,41,15.30
2015,06,07,06,42,15.40
2015,06,07,06,43,15.40
2015,06,07,06,44,15.40
2015,06,07,06,45,15.50
2015,06,07,06,46,15.50
2015,06,07,06,47,15.60
2015,06,07,06,48,15.60
2015,06,07,06,49,15.60
2015,06,07,06,50,15.70
2015,06,07,06,51,15.70
2015,06,07,06,52,15.80
2015,06,07,06,53,15.80
2015,06,07,06,54,15.80
2015,06,07,06,55,15.90
2015,06,07,06,56,15.90
2015,06,07,06,57,15.90
2015,06,07,06,58,16.00
2015,06,07,06,59,16.00
2015,06,07,07,00,16.00
2015,06,07,07,01,16.10
2015,06,07,07,02,16.10
2015,06,07,07,03,16.10
2015,06,07,07,04,16.20
2015,06,07,07,05,16.20
2015,06,07,07,06,16.20
2015,06,07,07,07,16.30
2015,06,07,07,08,16.30
2015,06,07,07,09,16.30
2015,06,07,07,10,16.40
2015,06,07,07,11,16.40
2015,06,07,07,12,16.40
2015,06,07,07,13,16.50
2015,06,07,07,14,16.50
2015,06,07,07,15,16.60
2015,06,07,07,16,16.60
2015,06,07,07,17,16.60
2015,06,07,07,18,16.70
2015,06,07,07,19,16.70
2015,06,07,07,20,16.70
2015,06,07,07,21,16.70
2015,06,07,07,22,16.80
2015,06,07,07,23,16.80
2015,06,07,07,24,16.90
2015,06,07,07,25,16.90
2015,06,07,07,26,16.90
2015,06,07,07,27,16.90
2015,06,07,07,28,17.00
2015,06,07,07,29,17.00
2015,06,07,07,30,17.10
2015,06,07,07,31,17.10
2015,06,07,07,32,17.10
2015,06,07,07,33,17.20
2015,06,07,07,34,17.20
2015,06,07,07,35,17.20
2015,06,07,07,36,17.30
2015,06,07,07,37,17.30
2015,06,07,07,38,17.40
2015,06,07,07,39,17.50
2015,06,07,07,40,17.60
2015,06,07,07,41,17.70
2015,06,07,07,42,17.70
2015,06,07,07,43,17.80
2015,06,07,07,44,17.80
2015,06,07,07,45,17.80
2015,06,07,07,46,17.80
2015,06,07,07,47,17.80
2015,06,07,07,48,17.80
2015,06,07,07,49,17.80
2015,06,07,07,50,17.80
2015,06,07,07,51,17.80
2015,06,07,07,52,17.80
2015,06,07,07,53,17.80
2015,06,07,07,54,17.80
2015,06,07,07,55,17.90
2015,06,07,07,56,17.90
2015,06,07,07,57,18.00
2015,06,07,07,58,18.00
2015,06,07,07,59,18.10
2015,06,07,08,00,18.20
2015,06,07,08,01,18.20
2015,06,07,08,02,18.30
2015,06,07,08,03,18.30
2015,06,07,08,04,18.40
2015,06,07,08,05,18.40
2015,06,07,08,06,18.40
2015,06,07,08,07,18.40
2015,06,07,08,08,18.40
2015,06,07,08,09,18.50
2015,06,07,08,10,18.50
2015,06,07,08,11,18.50
2015,06,07,08,12,18.60
2015,06,07,08,13,18.60
2015,06,07,08,14,18.50
2015,06,07,08,15,18.40
2015,06,07,08,16,18.30
2015,06,07,08,17,18.20
2015,06,07,08,18,18.10
2015,06,07,08,19,18.00
2015,06,07,08,20,18.00
2015,06,07,08,21,17.90
2015,06,07,08,22,17.90
2015,06,07,08,23,17.90
2015,06,07,08,24,17.90
2015,06,07,08,25,17.90
2015,06,07,08,26,17.90
2015,06,07,08,27,17.90
2015,06,07,08,28,18.00
2015,06,07,08,29,18.00
2015,06,07,08,30,18.10
2015,06,07,08,31,18.10
2015,06,07,08,32,18.20
2015,06,07,08,33,18.20
2015,06,07,08,34,18.30
2015,06,07,08,35,18.30
2015,06,07,08,36,18.30
2015,06,07,08,37,18.30
2015,06,07,08,38,18.30
2015,06,07,08,39,18.30
2015,06,07,08,40,18.30
2015,06,07,08,41,18.30
2015,06,07,08,42,18.20
2015,06,07,08,43,18.20
2015,06,07,08,44,18.10
2015,06,07,08,45,18.10
2015,06,07,08,46,18.10
2015,06,07,08,47,18.10
2015,06,07,08,48,18.10
2015,06,07,08,49,18.10
2015,06,07,08,50,18.10
2015,06,07,08,51,18.10
2015,06,07,08,52,18.20
2015,06,07,08,53,18.20
2015,06,07,08,54,18.20
2015,06,07,08,55,18.20
2015,06,07,08,56,18.10
2015,06,07,08,57,18.10
2015,06,07,08,58,18.00
2015,06,07,08,59,18.00
2015,06,07,09,00,18.00
2015,06,07,09,01,18.10
2015,06,07,09,02,18.10
2015,06,07,09,03,18.10
2015,06,07,09,04,18.10
2015,06,07,09,05,18.20
2015,06,07,09,06,18.20
2015,06,07,09,07,18.20
2015,06,07,09,08,18.10
2015,06,07,09,09,18.10
2015,06,07,09,10,18.10
2015,06,07,09,11,18.10
2015,06,07,09,12,18.00
2015,06,07,09,13,18.00
2015,06,07,09,14,18.10
2015,06,07,09,15,18.10
2015,06,07,09,16,18.10
2015,06,07,09,17,18.10
2015,06,07,09,18,18.20
2015,06,07,09,19,18.10
2015,06,07,09,20,18.00
2015,06,07,09,21,17.90
2015,06,07,09,22,17.70
2015,06,07,09,23,17.70
2015,06,07,09,24,17.70
2015,06,07,09,25,17.70
2015,06,07,09,26,17.70
2015,06,07,09,27,17.70
2015,06,07,09,28,17.80
2015,06,07,09,29,17.90
2015,06,07,09,30,18.00
2015,06,07,09,31,18.20
2015,06,07,09,32,18.30
2015,06,07,09,33,18.40
2015,06,07,09,34,18.50
2015,06,07,09,35,18.60
2015,06,07,09,36,18.50
2015,06,07,09,37,18.30
2015,06,07,09,38,18.20
2015,06,07,09,39,18.10
2015,06,07,09,40,18.00
2015,06,07,09,41,18.00
2015,06,07,09,42,18.10
2015,06,07,09,43,18.10
2015,06,07,09,44,18.30
2015,06,07,09,45,18.30
2015,06,07,09,46,18.40
2015,06,07,09,47,18.60
2015,06,07,09,48,18.70
2015,06,07,09,49,18.70
2015,06,07,09,50,18.80
2015,06,07,09,51,18.80
2015,06,07,09,52,18.80
2015,06,07,09,53,18.90
2015,06,07,09,54,18.90
2015,06,07,09,55,19.00
2015,06,07,09,56,19.00
2015,06,07,09,57,19.10
2015,06,07,09,58,19.10
2015,06,07,09,59,19.20
2015,06,07,10,00,19.20
2015,06,07,10,01,19.30
2015,06,07,10,02,19.30
2015,06,07,10,03,19.30
2015,06,07,10,04,19.30
2015,06,07,10,05,19.40
2015,06,07,10,06,19.40
2015,06,07,10,07,19.40
2015,06,07,10,08,19.50
2015,06,07,10,09,19.50
2015,06,07,10,10,19.50
2015,06,07,10,11,19.40
2015,06,07,10,12,19.30
2015,06,07,10,13,19.30
2015,06,07,10,14,19.30
2015,06,07,10,15,19.30
2015,06,07,10,16,19.30
2015,06,07,10,17,19.20
2015,06,07,10,18,19.10
2015,06,07,10,19,19.10
2015,06,07,10,20,19.00
2015,06,07,10,21,18.90
2015,06,07,10,22,18.90
2015,06,07,10,23,18.90
2015,06,07,10,24,19.00
2015,06,07,10,25,19.10
2015,06,07,10,26,19.20
2015,06,07,10,27,19.30
2015,06,07,10,28,19.40
2015,06,07,10,29,19.40
2015,06,07,10,30,19.50
2015,06,07,10,31,19.60
2015,06,07,10,32,19.60
2015,06,07,10,33,19.50
2015,06,07,10,34,19.50
2015,06,07,10,35,19.50
2015,06,07,10,36,19.60
2015,06,07,10,37,19.60
2015,06,07,10,38,19.70
2015,06,07,10,39,19.70
2015,06,07,10,40,19.70
2015,06,07,10,41,19.70
2015,06,07,10,42,19.70
2015,06,07,10,43,19.80
2015,06,07,10,44,19.90
2015,06,07,10,45,19.90
2015,06,07,10,46,19.90
2015,06,07,10,47,20.00
2015,06,07,10,48,20.00
2015,06,07,10,49,20.10
2015,06,07,10,50,20.10
2015,06,07,10,51,20.20
2015,06,07,10,52,20.20
2015,06,07,10,53,20.30
2015,06,07,10,54,20.30
2015,06,07,10,55,20.30
2015,06,07,10,56,20.30
2015,06,07,10,57,20.30
2015,06,07,10,58,20.30
2015,06,07,10,59,20.30
2015,06,07,11,00,20.20
2015,06,07,11,01,20.20
2015,06,07,11,02,20.30
2015,06,07,11,03,20.40
2015,06,07,11,04,20.50
2015,06,07,11,05,20.50
2015,06,07,11,06,20.60
2015,06,07,11,07,20.60
2015,06,07,11,08,20.70
2015,06,07,11,09,20.80
2015,06,07,11,10,20.80
2015,06,07,11,11,20.90
2015,06,07,11,12,21.00
2015,06,07,11,13,21.00
2015,06,07,11,14,21.10
2015,06,07,11,15,21.10
2015,06,07,11,16,21.20
2015,06,07,11,17,21.20
2015,06,07,11,18,21.30
2015,06,07,11,19,21.20
2015,06,07,11,20,21.20
2015,06,07,11,21,21.30
2015,06,07,11,22,21.30
2015,06,07,11,23,21.30
2015,06,07,11,24,21.40
2015,06,07,11,25,21.50
2015,06,07,11,26,21.60
2015,06,07,11,27,21.60
2015,06,07,11,28,21.60
2015,06,07,11,29,21.70
2015,06,07,11,30,21.70
2015,06,07,11,31,21.70
2015,06,07,11,32,21.70
2015,06,07,11,33,21.80
2015,06,07,11,34,21.90
2015,06,07,11,35,22.10
2015,06,07,11,36,22.20
2015,06,07,11,37,22.20
2015,06,07,11,38,22.30
2015,06,07,11,39,22.30
2015,06,07,11,40,22.30
2015,06,07,11,41,22.30
2015,06,07,11,42,22.30
2015,06,07,11,43,22.30
2015,06,07,11,44,22.30
2015,06,07,11,45,22.20
2015,06,07,11,46,22.10
2015,06,07,11,47,22.10
2015,06,07,11,48,22.10
2015,06,07,11,49,22.10
2015,06,07,11,50,22.00
2015,06,07,11,51,21.90
2015,06,07,11,52,21.80
2015,06,07,11,53,21.80
2015,06,07,11,54,21.70
2015,06,07,11,55,21.70
2015,06,07,11,56,21.70
2015,06,07,11,57,21.70
2015,06,07,11,58,21.80
2015,06,07,11,59,21.80
2015,06,07,12,00,21.80
2015,06,07,12,01,21.90
2015,06,07,12,02,21.90
2015,06,07,12,03,22.00
2015,06,07,12,04,22.00
2015,06,07,12,05,22.20
2015,06,07,12,06,22.30
2015,06,07,12,07,22.40
2015,06,07,12,08,22.40
2015,06,07,12,09,22.40
2015,06,07,12,10,22.40
2015,06,07,12,11,22.30
2015,06,07,12,12,22.30
2015,06,07,12,13,22.30
2015,06,07,12,14,22.30
2015,06,07,12,15,22.30
2015,06,07,12,16,22.30
2015,06,07,12,17,22.40
2015,06,07,12,18,22.50
2015,06,07,12,19,22.60
2015,06,07,12,20,22.60
2015,06,07,12,21,22.70
2015,06,07,12,22,22.60
2015,06,07,12,23,22.60
2015,06,07,12,24,22.70
2015,06,07,12,25,22.70
2015,06,07,12,26,22.80
2015,06,07,12,27,22.80
2015,06,07,12,28,22.80
2015,06,07,12,29,22.80
2015,06,07,12,30,22.80
2015,06,07,12,31,22.90
2015,06,07,12,32,22.90
2015,06,07,12,33,22.90
2015,06,07,12,34,23.00
2015,06,07,12,35,23.00
2015,06,07,12,36,23.10
2015,06,07,12,37,23.10
2015,06,07,12,38,23.10
2015,06,07,12,39,23.10
2015,06,07,12,40,23.10
2015,06,07,12,41,23.10
2015,06,07,12,42,23.20
2015,06,07,12,43,23.20
2015,06,07,12,44,23.20
2015,06,07,12,45,23.30
2015,06,07,12,46,23.20
2015,06,07,12,47,23.20
2015,06,07,12,48,23.20
2015,06,07,12,49,23.20
2015,06,07,12,50,23.20
2015,06,07,12,51,23.20
2015,06,07,12,52,23.20
2015,06,07,12,53,23.20
2015,06,07,12,54,23.20
2015,06,07,12,55,23.30
2015,06,07,12,56,23.40
2015,06,07,12,57,23.40
2015,06,07,12,58,23.50
2015,06,07,12,59,23.60
2015,06,07,13,00,23.60
2015,06,07,13,01,23.70
2015,06,07,13,02,23.80
2015,06,07,13,03,23.80
2015,06,07,13,04,23.90
2015,06,07,13,05,24.10
2015,06,07,13,06,24.20
2015,06,07,13,07,24.20
2015,06,07,13,08,24.30
2015,06,07,13,09,24.40
2015,06,07,13,10,24.50
2015,06,07,13,11,24.60
2015,06,07,13,12,24.70
2015,06,07,13,13,24.80
2015,06,07,13,14,24.80
2015,06,07,13,15,24.90
2015,06,07,13,16,25.00
2015,06,07,13,17,25.00
2015,06,07,13,18,25.10
2015,06,07,13,19,25.10
2015,06,07,13,20,25.10
2015,06,07,13,21,25.10
2015,06,07,13,22,25.10
2015,06,07,13,23,25.10
2015,06,07,13,24,25.10
2015,06,07,13,25,25.20
2015,06,07,13,26,25.20
2015,06,07,13,27,25.30
2015,06,07,13,28,25.30
2015,06,07,13,29,25.30
2015,06,07,13,30,25.30
2015,06,07,13,31,25.30
2015,06,07,13,32,25.40
2015,06,07,13,33,25.40
2015,06,07,13,34,25.40
2015,06,07,13,35,25.50
2015,06,07,13,36,25.60
2015,06,07,13,37,25.70
2015,06,07,13,38,25.70
2015,06,07,13,39,25.70
2015,06,07,13,40,25.70
2015,06,07,13,41,25.70
2015,06,07,13,42,25.70
2015,06,07,13,43,25.80
2015,06,07,13,44,25.80
2015,06,07,13,45,25.80
2015,06,07,13,46,25.80
2015,06,07,13,47,25.80
2015,06,07,13,48,25.80
2015,06,07,13,49,25.90
2015,06,07,13,50,25.90
2015,06,07,13,51,25.90
2015,06,07,13,52,25.90
2015,06,07,13,53,25.90
2015,06,07,13,54,26.00
2015,06,07,13,55,26.10
2015,06,07,13,56,26.10
2015,06,07,13,57,26.20
2015,06,07,13,58,26.20
2015,06,07,13,59,26.20
2015,06,07,14,00,26.20
2015,06,07,14,01,26.10
2015,06,07,14,02,26.10
2015,06,07,14,03,26.10
2015,06,07,14,04,26.10
2015,06,07,14,05,26.10
2015,06,07,14,06,26.10
2015,06,07,14,07,26.00
2015,06,07,14,08,25.90
2015,06,07,14,09,25.80
2015,06,07,14,10,25.80
2015,06,07,14,11,25.80
2015,06,07,14,12,25.90
2015,06,07,14,13,26.00
2015,06,07,14,14,26.00
2015,06,07,14,15,26.10
2015,06,07,14,16,26.10
2015,06,07,14,17,26.10
2015,06,07,14,18,26.10
2015,06,07,14,19,26.10
2015,06,07,14,20,26.10
2015,06,07,14,21,26.20
2015,06,07,14,22,26.20
2015,06,07,14,23,26.20
2015,06,07,14,24,26.30
2015,06,07,14,25,26.40
2015,06,07,14,26,26.40
2015,06,07,14,27,26.50
2015,06,07,14,28,26.60
2015,06,07,14,29,26.70
2015,06,07,14,30,26.80
2015,06,07,14,31,26.80
2015,06,07,14,32,26.80
2015,06,07,14,33,26.80
2015,06,07,14,34,26.90
2015,06,07,14,35,26.90
2015,06,07,14,36,26.80
2015,06,07,14,37,26.80
2015,06,07,14,38,26.80
2015,06,07,14,39,26.70
2015,06,07,14,40,26.70
2015,06,07,14,41,26.70
2015,06,07,14,42,26.70
2015,06,07,14,43,26.70
2015,06,07,14,44,26.70
2015,06,07,14,45,26.60
2015,06,07,14,46,26.60
2015,06,07,14,47,26.60
2015,06,07,14,48,26.50
2015,06,07,14,49,26.40
2015,06,07,14,50,26.40
2015,06,07,14,51,26.40
2015,06,07,14,52,26.50
2015,06,07,14,53,26.60
2015,06,07,14,54,26.70
2015,06,07,14,55,26.70
2015,06,07,14,56,26.80
2015,06,07,14,57,26.80
2015,06,07,14,58,26.90
2015,06,07,14,59,26.90
2015,06,07,15,00,26.90
2015,06,07,15,01,26.90
2015,06,07,15,02,26.80
2015,06,07,15,03,26.80
2015,06,07,15,04,26.90
2015,06,07,15,05,26.90
2015,06,07,15,06,27.00
2015,06,07,15,07,27.10
2015,06,07,15,08,27.10
2015,06,07,15,09,27.10
2015,06,07,15,10,27.20
2015,06,07,15,11,27.30
2015,06,07,15,12,27.30
2015,06,07,15,13,27.30
2015,06,07,15,14,27.30
2015,06,07,15,15,27.40
2015,06,07,15,16,27.40
2015,06,07,15,17,27.50
2015,06,07,15,18,27.50
2015,06,07,15,19,27.60
2015,06,07,15,20,27.60
2015,06,07,15,21,27.60
2015,06,07,15,22,27.70
2015,06,07,15,23,27.70
2015,06,07,15,24,27.80
2015,06,07,15,25,27.80
2015,06,07,15,26,27.80
2015,06,07,15,27,27.80
2015,06,07,15,28,27.80
2015,06,07,15,29,27.80
2015,06,07,15,30,27.80
2015,06,07,15,31,27.80
2015,06,07,15,32,27.90
2015,06,07,15,33,27.90
2015,06,07,15,34,27.90
2015,06,07,15,35,27.90
2015,06,07,15,36,27.70
2015,06,07,15,37,27.70
2015,06,07,15,38,27.60
2015,06,07,15,39,27.50
2015,06,07,15,40,27.50
2015,06,07,15,41,27.50
2015,06,07,15,42,27.50
2015,06,07,15,43,27.60
2015,06,07,15,44,27.60
2015,06,07,15,45,27.60
2015,06,07,15,46,27.60
2015,06,07,15,47,27.70
2015,06,07,15,48,27.80
2015,06,07,15,49,27.90
2015,06,07,15,50,28.00
2015,06,07,15,51,28.10
2015,06,07,15,52,28.30
2015,06,07,15,53,28.40
2015,06,07,15,54,28.50
2015,06,07,15,55,28.50
2015,06,07,15,56,28.60
2015,06,07,15,57,28.60
2015,06,07,15,58,28.40
2015,06,07,15,59,28.30
2015,06,07,16,00,28.30
2015,06,07,16,01,28.20
2015,06,07,16,02,28.10
2015,06,07,16,03,28.00
2015,06,07,16,04,27.80
2015,06,07,16,05,27.80
2015,06,07,16,06,27.80
2015,06,07,16,07,27.80
2015,06,07,16,08,27.90
2015,06,07,16,09,27.90
2015,06,07,16,10,28.00
2015,06,07,16,11,28.10
2015,06,07,16,12,28.10
2015,06,07,16,13,28.20
2015,06,07,16,14,28.10
2015,06,07,16,15,28.10
2015,06,07,16,16,28.10
2015,06,07,16,17,28.10
2015,06,07,16,18,28.10
2015,06,07,16,19,28.10
2015,06,07,16,20,28.20
2015,06,07,16,21,28.40
2015,06,07,16,22,28.50
2015,06,07,16,23,28.60
2015,06,07,16,24,28.60
2015,06,07,16,25,28.70
2015,06,07,16,26,28.80
2015,06,07,16,27,28.80
2015,06,07,16,28,28.80
2015,06,07,16,29,28.90
2015,06,07,16,30,28.90
2015,06,07,16,31,29.00
2015,06,07,16,32,29.10
2015,06,07,16,33,29.10
2015,06,07,16,34,29.20
2015,06,07,16,35,29.20
2015,06,07,16,36,29.20
2015,06,07,16,37,29.10
2015,06,07,16,38,29.00
2015,06,07,16,39,28.90
2015,06,07,16,40,28.80
2015,06,07,16,41,28.70
2015,06,07,16,42,28.70
2015,06,07,16,43,28.60
2015,06,07,16,44,28.60
2015,06,07,16,45,28.50
2015,06,07,16,46,28.50
2015,06,07,16,47,28.50
2015,06,07,16,48,28.50
2015,06,07,16,49,28.50
2015,06,07,16,50,28.50
2015,06,07,16,51,28.60
2015,06,07,16,52,28.60
2015,06,07,16,53,28.60
2015,06,07,16,54,28.70
2015,06,07,16,55,28.70
2015,06,07,16,56,28.70
2015,06,07,16,57,28.80
2015,06,07,16,58,28.80
2015,06,07,16,59,28.80
2015,06,07,17,00,28.80
2015,06,07,17,01,28.90
2015,06,07,17,02,29.00
2015,06,07,17,03,29.00
2015,06,07,17,04,29.10
2015,06,07,17,05,29.10
2015,06,07,17,06,29.20
2015,06,07,17,07,29.30
2015,06,07,17,08,29.30
2015,06,07,17,09,29.30
2015,06,07,17,10,29.30
2015,06,07,17,11,29.30
2015,06,07,17,12,29.30
2015,06,07,17,13,29.30
2015,06,07,17,14,29.20
2015,06,07,17,15,29.20
2015,06,07,17,16,29.10
2015,06,07,17,17,29.10
2015,06,07,17,18,29.10
2015,06,07,17,19,29.10